Location: Angwan Shehu
(11.2514°N, 7.4613°E)
Time: 22:50:48
(UTC+00:00)

Vanguard 3 - Pass Details

Date: 31 July 2021
Orbit: 510 x 3260 km, 33.3° (Epoch: 18 September)

Event Time Altitude Azimuth Distance (km) Brightness Sun altitude
Rises 19:14:58 0° 290° (WNW) 6,155 13.3 -19.1°
Reaches altitude 10° 19:19:22 10° 299° (WNW) 5,475 12.6 -20.1°
Maximum altitude 19:34:59 35° 360° (N) 4,405 11.0 -23.6°
Drops below altitude 10° 19:52:03 10° 60° (ENE) 5,955 11.2 -27.3°
Enters shadow 19:55:53 - 67° (ENE) 6,532 11.4 -28.2°
